Prince Albert Glass Field
CYPA : now visible

Airfield :











YOU CAN JOIN US ON...

 
LOGIN :

Register | Disclaimer

   EN    FR    IT 

 









Legend :    VFR   Marginal VFR   IFR   Intensive IFR   Very Intensive IFR
Visi :
Ceiling :
>= 8 km
>= 3000ft
5 to 8 km
1000 to 3000 ft
1500m to 5 km
500 to 1000 ft
800 to 1500m
200 to 500 ft
< 800m
< 200 ft
Symbols :   Thunderstorms  Fog  Heavy snow  Heavy precipitations  Wind > 20 kt






- Airport Elevation : 1405 ft
- IATA code : YPA


CYPA - Prince Albert Glass Field

CURRENT METAR :
  • 170200Z 10003KT 15SM FEW270 03/M01 A2989 RMK CI1 SLP146

EXPIRED METARs :
  • 170100Z 07006KT 15SM FEW270 05/00 A2988 RMK CI2 SLP140
  • 170000Z 18004KT 15SM FEW150 FEW250 12/00 A2988 RMK AC1CI1 AC TR SLP136 DENSITY ALT 1500FT

TAF TAF CYPA
Valid from the 17 at 01:00 until the 17 at 13:00 UTC


170038Z 1701/1713 18006KT P6SM SKC
BECMG 1702/1704 15008KT RMK NXT FCST BY 170700Z
CZWG FIR / North America



MET'MAP, your aeronautical weather chart ! - Copyright ORBIFLY December 2007 - Disclaimer

ORBIFLY MET'MAP TEAM :

Programming & Development : Alexandra Zaïnal
Concept & original design : Baudouin d'Aumeries
Assistance for programming : Marc-Olivier Méhu
Technical & hardware support : Manuel Goepfert

Contact : metmap@orbifly.com




SOURCES & CREDITS :

   NOAA       Earth
Advisory